Location: Unspecified
(20.0000°S, 0.0000°E)
Time: 04:14:59
(UTC+00:00)

Hubble Space Telescope - Visible Passes

Search period start: 27 May 2019 00:00
Search period end: 06 June 2019 00:00
Orbit: 537 x 540 km, 28.5° (Epoch: 26 May)

Date Brightness Start Highest point End Pass type
(mag) Time Alt. Az. Time Alt. Az. Time Alt. Az.
27 May 2.8 04:13:52 26° E 04:13:52 26° E 04:15:52 10° E visible
27 May 1.6 05:49:13 11° W 05:52:59 39° NNW 05:56:52 10° NE visible
28 May 3.3 04:04:04 20° E 04:04:04 20° E 04:05:28 10° ENE visible
28 May 2.0 05:39:25 13° W 05:42:26 29° NNW 05:46:03 10° NNE visible
29 May 3.7 03:54:18 15° ENE 03:54:18 15° ENE 03:55:01 10° ENE visible
29 May 2.4 05:29:39 15° WNW 05:31:53 22° NNW 05:35:06 10° NNE visible
29 May 3.1 19:10:51 10° N 19:12:14 14° NNE 19:12:14 14° NNE visible
30 May 2.8 05:19:53 14° NW 05:21:19 16° NNW 05:23:55 10° N visible
30 May 2.5 18:59:37 10° NNW 19:02:28 20° NNE 19:02:28 20° NNE visible
31 May 3.1 05:10:08 11° NW 05:10:45 12° NNW 05:12:16 10° N visible
31 May 2.0 18:48:37 10° NNW 18:52:10 27° NNE 18:52:42 26° NE visible
01 Jun 1.7 18:37:47 10° NW 18:41:37 37° NNE 18:42:55 29° ENE visible
02 Jun 1.2 18:27:04 10° NW 18:31:04 49° NNE 18:33:06 26° E visible
02 Jun 4.1 20:08:19 10° W 20:08:27 11° W 20:08:27 11° W visible
03 Jun 0.9 18:16:25 10° WNW 18:20:32 67° NNE 18:23:16 20° ESE visible
03 Jun 3.7 19:57:59 10° W 19:58:37 14° WSW 19:58:37 14° WSW visible
04 Jun 0.8 18:05:52 10° WNW 18:10:02 88° NNE 18:13:24 15° ESE visible
04 Jun 3.4 19:47:39 10° WSW 19:48:45 16° WSW 19:48:45 16° WSW visible
05 Jun 0.9 17:55:23 10° WNW 17:59:32 73° SSW 18:03:31 11° ESE visible
05 Jun 3.1 19:37:22 10° WSW 19:38:52 19° SW 19:38:52 19° SW visible
